Regional Weather Roundup
Issued by NWS Memphis, TN

Home | Current Version | Previous Version | Text Only | Print | Product List | Glossary On
Versions: 1 2 3 4 5 6 7 8 9 10 11 12 13 14 15 16 17 18 19 20 21 22 23 24 25 26 27 28 29 30 31 32 33 34 35 36 37 38 39 40 41 42 43 44 45 46 47 48 49 50
000
ASUS44 KMEG 032210
RWRMEG
MEMPHIS CWA HOURLY WEATHER ROUNDUP
NATIONAL WEATHER SERVICE MEMPHIS TN
500 PM CDT FRI JUL 03 2015

...WEST TENNESSEE...

CITY           SKY/WX    TMP DP  RH WIND       PRES   REMARKS
MEMPHIS INTL   CLOUDY    77  72  84 SW8       29.91S
NWS MEMPHIS      N/A     76 N/A N/A MISG        N/A
JACKSON        CLOUDY    76  71  85 SW12      29.89F
LEXINGTON      PTSUNNY   73  70  88 SW10      29.89F
DYERSBURG        N/A    N/A N/A N/A MISG        N/A
PARIS          PTSUNNY   73  66  78 SW14      29.88R


...EASTERN ARKANSAS...

CITY           SKY/WX    TMP DP  RH WIND       PRES   REMARKS
JONESBORO      PTSUNNY   76  71  85 SW10      29.87F
WEST MEMPHIS   CLOUDY    76  74  93 SW6       29.90S
BATESVILLE     PTSUNNY   79  73  83 NW5       29.89R
NEWPORT        PTSUNNY   78  73  84 S9        29.88F
WALNUT RIDGE   CLOUDY    75  70  83 SW9       29.86F
BLYTHEVILLE    PTSUNNY   78  73  84 SW8G17    29.86F
SEARCY         PTSUNNY   80  72  76 SW7       29.90S
STUTTGART      CLOUDY    75  73  94 SW12      29.90S
PINE BLUFF     RAIN      73  71  93 W7        29.95R
MONTICELLO     LGT RAIN  73  72  96 W3        29.96S


...NORTH MISSISSIPPI...

CITY           SKY/WX    TMP DP  RH WIND       PRES   REMARKS
TUPELO         CLOUDY    72  70  93 SW3       29.96F
OLIVE BRANCH   PTSUNNY   73  73 100 SW9       29.93R
TUNICA         PTSUNNY   77  72  83 SW10      29.93S
CLARKSDALE     PTSUNNY   79  79 100 SW8       29.94F
CORINTH        CLOUDY    73  70  88 S13       29.92F
GREENWOOD      CLOUDY    84  72  67 SW6       29.95S
COLUMBUS       CLOUDY    81  72  74 VRB2      29.96F
STARKVILLE     FAIR      84  72  65 SW3       29.97S
GOLDEN TRIANGL PTSUNNY   82  72  69 NE7       29.96F


...SOUTHEAST MISSOURI...

CITY           SKY/WX    TMP DP  RH WIND       PRES   REMARKS
WEST PLAINS    PTSUNNY   77  68  73 E3        29.91F
POPLAR BLUFF   LGT RAIN  78  71  79 SW13      29.84F
CAPE GIRARDEAU PTSUNNY   78  70  76 W6        29.85F


...NORTHWEST ALABAMA...

CITY           SKY/WX    TMP DP  RH WIND       PRES   REMARKS
MUSCLE SHOALS  LGT RAIN  72  69  90 SW6       29.99F


...MIDDLE TENNESSEE...

CITY           SKY/WX    TMP DP  RH WIND       PRES   REMARKS
NASHVILLE      CLOUDY    77  69  76 W13G21    29.89F
CLARKSVILLE    CLOUDY    78  70  76 SW14G21   29.86S
COLUMBIA       PTSUNNY   75  68  78 SW7       29.91F


...WESTERN KENTUCKY...

CITY           SKY/WX    TMP DP  RH WIND       PRES   REMARKS
PADUCAH        PTSUNNY   73  69  87 CALM      29.85F


...CENTRAL ARKANSAS...

CITY           SKY/WX    TMP DP  RH WIND       PRES   REMARKS
LITTLE ROCK    LGT RAIN  73  69  87 SW12      29.92R


SKY/WX REPORTED AS FAIR MEANS FEW OR NO CLOUDS BELOW
12 THOUSAND FEET.



USA.gov is the U.S. government's official web portal to all federal, state and local government web resources and services.